Date,TemperatureHighF,TemperatureAvgF,TemperatureLowF,DewpointHighF,DewpointAvgF,DewpointLowF,HumidityHigh,HumidityAvg,HumidityLow,PressureMaxIn,PressureMinIn,WindSpeedMaxMPH,WindSpeedAvgMPH,GustSpeedMaxMPH,PrecipitationSumIn
2013-1-1,43.9,40.4,35.9,43.8,38.4,31.8,100,93,84,30.84,30.59,19,7,19,0.01
2013-1-2,37.7,34.5,29.2,31.8,30.1,27.9,98,84,74,30.90,30.81,14,5,14,0.00
2013-1-3,48.1,38.0,27.0,32.2,29.3,25.7,100,73,44,31.02,30.88,16,4,21,0.00
2013-1-4,47.9,42.4,36.6,33.7,30.8,28.8,76,64,49,31.09,30.92,9,2,10,0.00
2013-1-5,50.2,42.0,34.9,39.9,37.5,32.1,99,85,64,30.93,30.78,14,4,14,0.00
2013-1-6,55.4,41.2,32.3,35.4,30.0,25.0,100,69,32,30.96,30.84,17,4,17,0.00
2013-1-7,55.1,43.0,30.0,37.1,29.9,22.2,76,61,43,30.90,30.47,14,4,15,0.00
2013-1-8,48.7,46.6,45.0,48.7,42.6,33.6,100,87,62,30.67,30.52,15,5,15,0.62
2013-1-9,55.9,53.0,47.7,55.8,52.9,47.7,100,100,99,30.69,30.51,31,10,32,1.54
2013-1-10,58.7,54.8,48.3,58.7,50.9,45.2,100,87,65,30.57,30.46,23,8,24,0.03
2013-1-11,69.9,57.8,46.5,62.1,50.6,44.2,93,79,53,30.53,30.34,26,7,26,0.00
2013-1-12,72.9,55.3,35.8,69.3,54.1,33.5,100,95,83,30.49,30.20,28,9,32,0.12
2013-1-13,41.8,35.3,32.0,34.1,27.5,23.8,91,74,52,30.78,30.47,24,12,27,0.00
2013-2-12,47.7,46.3,43.1,47.1,45.4,40.5,100,97,90,30.58,30.40,23,6,23,0.45
2013-2-13,54.0,43.7,39.2,40.5,36.8,33.7,93,78,49,30.73,30.57,23,7,23,0.00
2013-2-14,66.6,50.3,35.7,41.8,36.8,31.7,97,65,28,30.68,30.56,14,4,14,0.00
2013-2-15,50.5,45.8,35.2,39.4,28.5,14.4,77,52,28,30.95,30.65,24,7,26,0.00
2013-2-16,53.4,42.0,32.9,30.7,26.8,23.4,71,56,35,30.98,30.74,14,3,14,0.00
2013-2-17,68.2,53.1,37.2,45.4,33.2,26.9,77,51,22,30.74,30.48,31,9,31,0.00
2013-2-18,76.8,60.9,50.9,57.5,44.7,31.6,83,58,30,30.68,30.31,32,12,32,0.00
2013-2-19,50.7,43.5,36.2,32.5,29.6,22.7,75,59,36,30.90,30.68,15,4,16,0.00
2013-3-5,55.7,50.8,43.6,23.9,20.2,16.7,43,30,23,30.93,30.83,27,11,29,0.00
2013-3-6,59.1,46.5,33.2,24.9,21.8,15.4,66,40,20,31.03,30.77,14,4,14,0.00
2013-3-7,68.7,54.9,41.0,34.1,27.4,19.3,52,36,22,30.82,30.66,20,7,23,0.00
2013-3-8,63.8,58.2,52.0,56.3,50.0,33.9,84,75,44,30.77,30.57,18,7,18,0.00
2013-3-9,69.0,63.6,59.3,64.7,59.6,54.7,98,87,80,30.57,30.20,25,10,26,0.01
2013-3-10,64.7,53.9,48.8,61.9,46.2,33.6,99,77,54,30.51,30.26,30,10,30,0.74
2013-3-11,55.7,55.2,54.9,20.7,19.5,18.0,26,25,23,30.57,30.56,16,10,16,0.00
2013-3-13,67.3,59.6,47.2,36.0,33.0,29.6,63,37,28,31.02,30.88,14,5,14,0.00
2013-3-14,74.9,60.5,47.7,46.7,39.3,31.2,62,47,33,30.93,30.74,24,8,26,0.00
2013-3-15,78.3,65.1,51.5,54.3,48.1,42.2,94,58,31,30.75,30.46,27,10,29,0.00
2013-3-16,79.7,68.1,56.9,59.5,54.5,46.8,93,64,44,30.46,30.25,32,12,32,0.00
2013-3-17,73.8,67.1,58.9,61.9,56.6,49.1,88,70,49,30.36,30.23,26,8,26,0.00
2013-3-18,68.8,61.4,53.1,64.4,48.6,36.6,96,65,43,30.58,30.20,26,8,26,0.00
2013-3-19,67.1,56.4,45.3,43.1,37.2,32.6,79,51,35,30.69,30.52,21,7,22,0.00
2013-3-20,65.6,56.0,45.4,36.1,31.6,25.2,67,42,23,30.87,30.60,15,5,17,0.00
2013-3-21,67.6,58.6,49.3,56.4,40.8,30.3,72,52,41,30.60,30.15,29,10,29,0.00
2013-3-22,65.5,53.4,45.7,61.4,50.0,42.8,100,89,68,30.42,30.14,22,7,23,0.00
2013-3-23,53.3,48.8,45.9,51.2,47.5,45.7,100,95,85,30.45,30.22,25,6,26,0.04
2013-3-24,51.3,45.2,39.1,49.3,30.5,20.8,99,59,36,30.74,30.35,36,14,36,0.03
2013-3-25,52.4,42.4,33.3,24.6,19.7,13.9,68,42,23,30.97,30.74,24,9,29,0.00
2013-3-26,55.4,42.5,30.6,24.1,20.5,16.3,61,43,28,31.08,30.88,13,3,14,0.00
2013-3-27,68.7,52.2,36.7,41.1,30.7,22.6,62,45,28,30.90,30.67,24,8,26,0.00
2013-3-28,69.0,61.0,49.9,56.3,51.0,40.9,86,70,57,30.80,30.66,21,8,23,0.00
2013-3-29,74.4,66.2,59.5,58.9,56.8,55.7,89,73,57,30.77,30.60,21,8,23,0.00
2013-3-30,75.2,65.2,55.1,64.0,59.9,54.8,99,84,65,30.67,30.46,28,6,31,0.96
2013-3-31,72.5,65.6,57.2,63.7,57.1,49.4,100,76,52,30.56,30.37,25,6,32,0.63
2013-4-1,77.5,65.9,49.8,53.1,49.3,44.0,93,58,33,30.65,30.51,13,3,14,0.00
2013-4-2,71.1,64.2,50.5,63.0,55.8,41.0,88,75,61,30.59,30.47,26,8,28,0.00
2013-4-3,52.9,47.8,44.5,48.0,45.1,43.0,100,91,75,30.72,30.52,26,8,31,0.65
2013-4-4,50.7,45.3,41.5,43.8,41.1,39.5,96,86,71,30.77,30.67,18,7,19,0.04
2013-4-5,66.8,54.3,42.9,49.6,44.4,40.5,92,72,46,30.82,30.61,13,5,14,0.00
2013-4-6,72.5,62.9,53.1,57.7,51.6,46.7,88,68,47,30.61,30.41,26,10,31,0.00
2013-4-7,71.5,64.5,59.2,61.5,58.6,55.9,91,82,70,30.49,30.34,24,9,26,0.00
2013-4-24,60.7,54.9,43.8,40.9,36.3,33.2,68,50,38,30.88,30.78,18,5,18,0.00
2013-4-25,72.4,60.2,47.9,46.0,40.0,28.8,65,48,31,30.92,30.73,18,6,18,0.00
2013-4-26,76.3,65.8,56.6,67.0,56.6,43.4,87,73,52,30.76,30.55,20,7,21,0.00
2013-4-27,72.4,67.9,59.4,65.8,59.7,54.7,91,76,56,30.69,30.55,18,7,21,0.00
2013-4-28,79.2,65.4,52.3,65.1,58.9,51.4,99,81,59,30.62,30.44,14,4,16,0.00
2013-4-29,82.0,71.6,59.5,66.6,61.1,56.4,98,72,45,30.49,30.37,18,6,19,0.00
2013-4-30,80.9,69.8,60.6,65.4,61.1,55.8,95,75,51,30.42,30.32,18,6,19,0.00
2013-5-1,82.9,71.7,62.8,66.7,62.8,58.4,96,76,45,30.54,30.36,18,7,18,0.00
2013-5-2,66.5,52.5,42.7,62.2,47.8,35.0,96,84,72,30.89,30.51,31,12,34,0.04
2013-5-3,64.2,51.7,39.8,36.6,31.6,21.8,82,52,23,30.87,30.60,30,10,34,0.02
2013-5-4,70.5,56.3,40.3,44.4,34.1,22.8,87,49,18,30.60,30.45,32,7,34,0.00
2013-5-5,64.8,55.1,46.5,47.0,42.2,38.7,78,63,48,30.72,30.59,19,6,19,0.00
2013-5-6,75.4,62.6,47.4,55.8,50.1,44.5,94,66,39,30.69,30.56,16,3,18,0.00
2013-5-7,81.8,70.1,56.4,55.3,52.0,47.8,80,55,33,30.65,30.51,13,4,13,0.00
2013-5-8,83.5,72.2,61.4,59.9,56.1,52.1,78,59,38,30.58,30.44,24,7,24,0.00
2013-5-9,72.1,68.2,65.1,67.6,64.4,57.6,99,88,63,30.55,30.42,19,6,21,0.18
2013-5-10,79.2,70.1,63.1,66.6,63.3,58.4,100,81,55,30.61,30.44,14,3,14,0.17
2013-5-11,79.1,69.4,59.6,58.9,51.9,44.4,89,57,31,30.74,30.58,21,6,22,0.00
2013-5-12,76.4,66.0,55.7,53.2,40.9,31.0,73,43,20,30.84,30.71,21,5,22,0.00
2013-5-13,84.2,69.0,52.6,51.0,47.2,40.4,79,49,29,30.82,30.69,19,6,19,0.00
2013-5-14,84.3,72.3,59.4,61.8,55.0,47.0,91,58,30,30.75,30.56,23,7,23,0.00
2013-5-15,76.8,70.0,61.4,68.9,66.3,59.8,100,89,68,30.62,30.36,28,10,31,1.82
2013-5-16,78.9,69.4,61.7,71.1,66.5,61.7,100,91,75,30.44,30.32,21,7,31,0.05
2013-5-17,87.3,78.4,71.3,74.5,72.2,69.8,100,83,61,30.43,30.36,19,6,21,0.05
2013-5-18,89.7,80.1,71.2,73.9,70.4,67.4,91,74,53,30.49,30.34,23,9,26,0.00
2013-5-19,88.0,78.9,69.5,71.3,69.0,67.0,95,73,54,30.43,30.25,31,11,32,0.00
2013-5-20,87.5,79.4,73.3,72.6,69.8,68.5,87,74,57,30.40,30.23,27,11,28,0.00
2013-5-21,83.0,72.0,62.0,71.8,67.1,60.5,100,85,67,30.44,30.23,37,8,40,1.72
2013-5-22,83.0,69.4,56.4,65.0,60.1,53.8,100,76,40,30.53,30.41,11,3,12,0.00
2013-5-23,85.8,76.4,69.0,72.7,70.1,63.7,99,82,59,30.65,30.45,21,6,23,0.00
2013-5-24,84.8,77.1,67.8,73.6,70.8,64.2,97,81,62,30.78,30.58,18,6,20,0.49
2013-5-25,82.1,72.1,67.4,72.5,68.0,58.9,98,88,62,30.74,30.61,37,5,37,0.06
2013-5-26,85.8,77.1,70.0,72.5,70.4,68.1,98,81,59,30.67,30.51,19,7,20,0.02
2013-5-27,85.6,77.9,70.9,70.1,68.5,66.2,92,74,54,30.57,30.37,24,9,24,0.04
2013-5-28,85.4,78.1,70.8,70.5,67.0,63.8,90,70,51,30.47,30.35,29,10,29,0.00
2013-5-29,82.3,76.3,72.7,71.6,69.7,68.3,90,80,67,30.42,30.30,31,11,32,0.01
2013-5-30,87.1,79.4,74.0,74.3,71.6,69.4,89,78,61,30.38,30.27,27,11,29,0.01
2013-5-31,89.4,81.7,76.2,74.4,72.1,69.7,88,74,54,30.42,30.25,27,10,27,0.00
2013-6-1,86.5,79.1,75.1,75.2,71.7,67.9,88,79,65,30.53,30.29,26,9,26,0.00
2013-6-2,81.0,74.0,65.7,67.9,56.8,46.6,82,57,32,30.65,30.51,19,6,19,0.00
2013-6-3,86.9,74.3,61.8,63.5,59.3,54.9,84,62,37,30.57,30.41,14,5,14,0.00
2013-6-4,89.0,78.3,67.9,69.8,66.6,62.6,87,69,50,30.60,30.37,21,7,26,0.00
2013-6-5,89.3,80.2,71.4,71.3,68.7,64.4,90,69,45,30.53,30.32,23,6,23,0.00
2013-6-6,79.6,73.1,66.8,71.2,67.5,64.5,98,83,68,30.52,30.37,18,5,19,0.78
2013-6-7,81.9,72.7,63.2,65.8,58.9,51.5,94,65,38,30.58,30.46,15,4,16,0.00
2013-6-8,86.5,74.6,61.1,64.4,59.8,55.0,89,62,42,30.52,30.37,16,5,17,0.00
2013-6-9,81.2,72.8,68.2,70.5,66.7,62.3,99,82,61,30.52,30.42,20,5,20,0.19
2013-6-10,94.4,88.8,78.2,72.3,66.7,61.2,69,49,35,30.54,30.47,14,5,15,0.00
2013-6-11,91.7,82.4,73.4,74.9,70.8,66.9,94,70,47,30.61,30.50,18,7,18,0.00
2013-6-12,91.9,82.4,74.5,74.5,71.4,67.8,97,72,47,30.65,30.50,21,6,21,0.00
2013-6-13,95.4,84.1,73.5,73.4,70.2,65.9,90,66,40,30.64,30.47,15,4,15,0.00
2013-6-14,94.5,85.2,74.3,74.3,70.5,66.7,88,64,42,30.57,30.46,13,3,13,0.00
2013-6-15,89.1,80.8,72.8,77.1,72.3,67.2,87,76,62,30.59,30.46,25,5,26,0.09
2013-6-16,93.2,83.4,75.4,74.7,71.3,66.7,94,70,43,30.59,30.45,14,5,16,0.09
2013-6-17,88.3,79.6,68.2,77.8,72.4,65.9,98,80,62,30.62,30.43,27,5,30,0.72
2013-6-18,81.2,76.1,72.6,74.3,70.1,68.0,90,82,69,30.59,30.45,20,5,20,0.00
2013-6-19,89.9,79.3,70.0,75.2,71.6,68.8,99,79,52,30.58,30.45,14,4,15,0.00
2013-6-20,93.6,83.0,75.5,73.2,70.4,65.4,91,68,42,30.63,30.51,19,7,19,0.00
2013-6-21,93.8,82.3,74.5,73.6,70.6,65.0,89,70,40,30.66,30.55,18,7,19,0.00
2013-6-22,93.1,84.3,74.1,72.9,69.5,66.0,89,63,43,30.64,30.46,19,8,20,0.00
2013-9-3,93.4,90.1,87.2,69.8,67.9,66.3,54,48,42,30.56,30.51,13,6,14,0.00
2013-9-5,99.1,92.1,82.5,66.4,61.6,57.8,55,37,27,30.63,30.55,13,5,14,0.00
2013-9-6,98.3,85.6,73.7,71.1,63.9,58.5,71,50,31,30.66,30.51,20,4,21,0.00
2013-9-7,97.8,85.6,75.3,72.3,65.7,59.5,81,54,30,30.62,30.47,25,4,27,0.00
2013-9-8,78.7,75.6,72.7,67.3,66.2,65.3,83,73,65,30.54,30.53,10,2,10,0.00
2013-9-17,91.8,87.5,81.3,66.6,64.4,59.8,61,47,35,30.56,30.50,13,4,14,0.00
2013-9-18,82.8,78.6,76.5,70.0,67.1,66.2,73,68,62,30.58,30.52,10,3,11,0.00
2013-9-23,84.8,77.5,65.2,59.4,54.8,50.3,72,47,32,30.44,30.31,16,5,16,0.00
2013-9-24,92.0,77.8,63.6,66.8,57.0,45.8,91,54,22,30.50,30.39,17,4,19,0.00
2013-9-25,92.8,75.7,57.6,59.0,52.3,42.7,89,50,21,30.47,30.34,10,2,10,0.00
2013-9-26,93.4,79.3,65.8,60.4,55.7,51.2,64,46,28,30.46,30.36,19,5,21,0.00
2013-9-27,86.9,78.1,67.1,71.3,65.9,59.0,82,67,58,30.52,30.41,18,6,19,0.00
2013-9-28,86.9,75.6,65.5,74.7,70.4,64.3,100,85,65,30.60,30.44,22,8,23,1.34
2013-9-29,66.0,65.4,64.5,64.6,63.2,60.6,96,93,86,30.60,30.57,13,5,14,0.00
2013-10-9,81.2,72.9,62.0,58.5,54.8,50.8,79,55,37,30.66,30.55,16,6,16,0.00
2013-10-10,81.7,69.9,58.8,62.0,57.6,52.5,93,68,39,30.64,30.46,19,6,19,0.00
2013-10-11,84.4,74.8,66.1,70.3,67.2,60.5,96,78,61,30.53,30.39,20,8,23,0.00
2013-10-12,88.0,77.1,69.9,75.0,70.8,65.6,96,82,57,30.64,30.45,26,6,27,0.01
2013-10-13,69.9,68.7,67.6,68.5,67.2,66.3,98,95,89,30.67,30.62,7,2,9,0.00
2013-10-14,68.6,68.5,68.5,68.6,68.5,68.5,100,100,100,30.65,30.64,11,6,12,0.07
2013-10-15,77.6,63.9,53.5,73.4,62.8,52.9,100,97,86,30.63,30.48,18,8,19,1.88
2013-10-16,61.6,55.3,51.7,55.0,52.7,48.8,100,92,66,30.66,30.56,17,6,19,0.27
2013-10-17,70.9,57.4,47.5,52.0,47.1,39.7,94,71,37,30.70,30.55,10,3,11,0.00
2013-10-18,70.0,60.4,49.8,56.6,51.8,47.8,95,75,48,30.64,30.46,24,4,24,0.00
2013-10-19,63.8,51.8,41.9,50.3,40.6,34.4,89,68,38,30.78,30.64,22,7,24,0.00
2013-10-20,47.5,45.1,42.7,42.6,41.1,39.7,92,86,78,30.65,30.60,0,0,2,0.00
2013-10-21,70.9,60.4,52.3,62.6,54.1,49.1,89,80,68,30.67,30.50,20,7,23,0.00
2013-10-22,73.6,58.4,43.0,50.2,44.1,36.3,92,64,30,30.73,30.58,11,3,14,0.00
2013-10-23,81.0,63.6,47.3,54.4,48.9,43.9,94,63,29,30.70,30.60,10,2,10,0.00
2013-10-24,78.1,64.9,52.5,54.3,49.4,43.1,86,59,39,30.85,30.63,15,4,16,0.00
2013-10-25,66.5,56.8,49.8,47.2,43.9,38.0,85,63,46,30.98,30.81,18,7,23,0.00
2013-10-26,75.4,61.1,51.4,62.9,54.3,46.0,100,79,65,30.81,30.59,17,6,24,1.38
2013-10-27,68.0,62.5,58.6,60.0,58.3,54.9,99,87,68,30.70,30.57,9,2,17,0.00
2013-10-28,77.1,66.0,55.6,67.1,62.4,55.3,100,89,71,30.68,30.57,13,5,15,0.00
2013-10-29,75.0,71.6,68.3,69.6,68.0,65.7,97,89,82,30.66,30.56,19,8,19,0.00
2013-10-30,71.5,67.9,64.7,69.7,66.3,63.2,99,95,88,30.60,30.37,23,9,31,0.09
2013-10-31,74.8,67.6,55.3,70.8,55.9,38.2,100,71,29,30.45,30.24,33,8,33,0.09
2013-11-1,74.4,61.5,47.9,52.6,48.1,42.8,93,65,40,30.64,30.39,14,4,18,0.00
2013-11-2,66.1,57.7,46.8,43.5,38.2,31.4,72,50,29,30.86,30.64,15,6,21,0.00
2013-11-3,64.8,54.4,42.5,45.8,40.1,34.6,79,60,39,30.78,30.57,19,6,21,0.00
2013-11-4,59.5,56.8,52.5,59.5,53.5,44.6,100,89,66,30.67,30.56,13,6,20,0.51
2013-11-5,68.6,64.0,59.5,68.3,63.9,59.5,100,100,98,30.63,30.50,15,7,19,0.41
2013-11-6,69.3,55.5,44.2,69.3,51.0,39.1,100,85,63,30.93,30.52,24,8,26,0.09
2013-11-7,62.2,49.8,39.6,45.1,39.8,34.5,92,71,40,31.07,30.92,10,2,12,0.00
2013-11-8,64.5,53.7,40.6,46.4,42.8,35.9,98,70,37,30.95,30.70,14,4,17,0.00
2013-11-9,65.2,57.9,53.7,50.5,47.7,44.9,81,69,57,30.81,30.69,14,6,16,0.00
2013-11-10,67.4,56.7,48.6,48.3,46.0,38.9,89,69,39,30.92,30.79,8,2,10,0.00
2013-11-11,73.1,57.9,45.5,53.1,48.8,42.8,94,74,48,30.85,30.73,11,2,12,0.00
2013-11-12,60.3,47.1,34.6,56.7,33.2,19.5,95,61,32,31.25,30.84,28,9,28,0.00
2013-11-13,50.9,38.9,28.6,28.1,24.0,21.2,78,56,35,31.26,30.93,11,3,11,0.00
2013-11-14,58.4,45.9,30.2,45.9,32.6,24.3,89,62,32,30.94,30.59,19,6,21,0.00
2013-11-15,68.9,58.7,52.3,59.1,52.1,45.9,92,79,61,30.59,30.40,14,6,16,0.00
2013-11-16,74.1,68.2,61.4,69.9,64.4,59.0,97,88,75,30.43,30.25,22,10,30,0.00
2013-11-17,84.4,75.0,63.6,70.4,58.2,36.8,91,60,31,30.57,30.26,21,8,24,0.00
2013-11-18,69.1,61.6,52.9,39.2,32.5,27.1,49,34,21,30.74,30.57,14,6,18,0.00
2013-11-19,67.5,58.4,52.8,39.6,33.5,27.7,52,40,25,30.76,30.59,26,8,26,0.00
2013-11-20,64.0,55.8,43.6,52.4,40.3,32.3,82,57,44,30.61,30.47,18,7,18,0.00
2013-11-21,71.1,63.6,44.0,68.9,61.5,43.2,99,93,81,30.76,30.51,21,7,27,0.16
2013-11-22,43.8,36.6,34.4,43.1,36.2,34.1,100,99,93,31.00,30.74,22,11,27,0.01
2013-11-23,42.3,37.7,35.1,38.6,34.7,26.5,100,90,65,31.10,30.98,16,8,21,0.05
2013-11-24,35.7,33.2,30.8,27.6,24.9,22.0,80,71,61,31.15,30.91,13,6,16,0.32
2013-11-25,36.4,34.1,31.6,35.5,32.9,26.5,100,95,74,30.91,30.70,11,4,11,0.58
2013-11-26,35.7,35.4,34.8,34.3,33.4,32.8,98,93,90,30.74,30.67,14,8,16,0.00
2013-12-5,34.6,30.8,28.6,31.5,26.6,21.5,100,86,61,30.72,30.63,19,9,26,0.03
2013-12-6,32.0,27.2,23.1,32.0,26.2,20.9,100,96,91,31.06,30.65,13,0,14,0.62
2013-12-7,25.6,22.9,19.4,25.5,21.6,17.1,100,95,89,31.09,30.83,0,0,0,0.00
2013-12-8,32.8,29.8,25.0,32.8,29.8,25.0,100,100,100,30.83,30.60,0,0,0,0.01
2013-12-9,32.1,30.9,27.5,32.1,29.5,23.2,100,95,83,30.95,30.71,0,0,0,0.00
2013-12-10,27.4,24.4,20.6,23.2,20.8,18.1,90,86,82,31.04,30.96,11,3,11,0.00
2013-12-17,69.7,56.3,43.2,40.5,39.0,37.2,81,55,32,30.83,30.79,6,1,8,0.00
2013-12-18,67.5,55.6,37.4,44.2,39.3,35.2,94,60,37,30.82,30.69,13,6,21,0.00
2013-12-19,71.7,65.6,50.3,63.1,52.5,39.8,99,66,37,30.69,30.30,31,10,32,0.00
2013-12-20,68.5,57.3,35.4,64.1,54.4,35.3,100,91,76,30.42,30.31,23,8,25,0.00
2013-12-21,54.3,44.2,34.4,54.3,44.2,34.4,100,100,100,30.32,30.06,16,4,24,1.35
2013-12-22,48.3,36.6,29.8,48.3,31.6,26.1,100,83,61,30.95,30.32,19,8,22,0.00
2013-12-23,45.3,33.1,25.5,32.1,27.5,24.0,95,81,58,31.12,30.93,10,2,12,0.00
2013-12-24,49.9,36.3,23.3,35.3,29.5,22.6,98,78,53,31.11,30.83,17,4,19,0.00
2013-12-25,55.7,42.7,32.9,42.6,35.3,29.6,89,76,56,30.97,30.83,13,5,17,0.00
2013-12-26,51.7,39.7,31.3,37.8,34.4,30.8,99,83,58,31.01,30.89,9,3,10,0.00
2013-12-27,57.4,43.8,31.4,41.7,36.5,30.9,99,78,49,31.02,30.88,7,2,10,0.00
2013-12-28,58.0,46.8,34.1,41.8,37.8,33.1,97,73,47,30.88,30.53,13,3,16,0.00
2013-12-29,51.9,39.9,31.5,42.5,32.6,23.2,84,75,67,30.83,30.50,19,7,25,0.00
2013-12-30,41.0,33.7,28.5,24.8,21.4,17.8,72,61,46,30.97,30.80,16,5,19,0.00
2013-12-31,51.7,38.6,24.3,29.5,25.6,21.0,90,62,37,31.00,30.77,13,4,14,0.00
2014-1-1,64.9,46.9,32.6,50.3,37.2,27.0,91,71,46,30.77,30.43,24,9,30,0.00
2014-1-2,40.1,31.5,24.0,26.5,19.1,16.2,78,61,41,31.03,30.73,21,9,32,0.00